[[{"header":{"parameterUnit":"m.s-1","parameterCategory":1,"la1":30.2991,"la2":30.254,"lo1":-89.0895,"lo2":-89.0444,"dy":0.0017,"dx":0.0017,"nx":28,"ny":28,"refTime":"2024-11-24T09:00:00:Z","depth":0,"parameterNumber":2,"parameterNumberName":"U-component_of_WINDS"},"data":[0,0,0,0,0,0,0,0,0,0,0,0,0,0,0,0,0,0,0,0,0,0,0,0,0,0,0,0,0,0,0,0,0,0,0,0,0,0,0,0,0,0,0,0,0,0,0,0,0,0,0,0,0,0,0,0,0,0,-0.5602,-0.5601,0,-0.5581,-0.5581,-0.558,-0.5586,-0.5586,-0.5587,-0.5587,-0.5565,-0.5564,-0.5563,0,0,0,0,0,0,0,0,0,0,0,0,0,-0.5646,-0.5646,-0.5602,-0.5601,-0.5601,-0.5581,-0.5581,-0.558,-0.5586,-0.5586,-0.5587,-0.5587,-0.5566,-0.5564,-0.5563,0,0,0,0,0,0,0,0,0,0,0,0,0,-0.5626,-0.5645,-0.5602,-0.5601,-0.5601,-0.5581,-0.5581,-0.558,-0.5586,-0.5586,-0.5587,-0.5588,-0.5566,-0.5565,-0.5563,-0.5542,0,0,-0.5559,-0.5558,0,0,0,0,0,0,0,0,-0.5628,-0.5625,-0.5602,-0.5601,-0.5601,-0.5587,-0.5588,-0.5567,-0.5586,-0.5592,-0.5587,-0.5588,-0.5572,-0.557,-0.5565,-0.5541,-0.554,-0.5559,-0.5558,-0.5557,-0.5557,0,0,0,0,0,0,0,-0.5629,-0.5626,-0.5593,-0.5601,-0.5601,-0.5603,-0.56,-0.5584,-0.5578,-0.5591,-0.5591,-0.5589,-0.5572,-0.5566,-0.5564,-0.5539,-0.5559,-0.5557,-0.5556,-0.5556,-0.5497,-0.5497,0,0,0,0,0,0,-0.5631,-0.5627,-0.5594,-0.5593,-0.5616,-0.5601,-0.5599,-0.5591,-0.5579,-0.5577,-0.5588,-0.5589,-0.5568,-0.5566,-0.5563,-0.5537,-0.5557,-0.5556,-0.5555,-0.5498,-0.5497,-0.5496,0,0,0,0,0,0,-0.5631,-0.5628,-0.5595,-0.561,-0.5606,-0.56,-0.5591,-0.559,-0.5584,-0.5577,-0.5576,-0.5584,-0.5569,-0.5566,-0.5547,-0.5536,-0.5555,-0.5554,-0.5499,-0.5498,-0.5497,-0.5485,0,0,0,0,0,0,-0.5633,-0.5628,-0.5619,-0.561,-0.5605,-0.5579,-0.559,-0.5589,-0.5582,-0.5583,-0.5572,-0.5571,-0.5569,-0.5549,-0.5546,-0.5535,-0.5553,-0.55,-0.5498,-0.5497,-0.5486,-0.5483,-0.5481,0,0,0,0,0,-0.5634,-0.5617,-0.5619,-0.5615,-0.5594,-0.5578,-0.5575,-0.5574,-0.5581,-0.5572,-0.5568,-0.5571,-0.5539,-0.5547,-0.5543,-0.5532,-0.55,-0.5499,-0.5497,-0.5487,-0.5484,-0.5481,0,0,0,0,0,0,-0.5624,-0.5615,-0.5618,-0.5596,-0.5588,-0.5579,-0.5568,-0.5571,-0.556,-0.5561,-0.556,-0.5557,-0.5538,-0.5534,-0.5544,-0.5511,-0.552,-0.5518,-0.5514,-0.5511,-0.5509,-0.5509,-0.5551,0,0,0,0,0,-0.562,-0.5608,-0.56,-0.5582,-0.5578,-0.5574,-0.5567,-0.5567,-0.5558,-0.5554,-0.5548,-0.5539,-0.5527,-0.5519,-0.5508,-0.5486,-0.5484,-0.5476,-0.5474,-0.5472,-0.5469,-0.5457,-0.5454,-0.5491,-0.5491,-0.5491,0,0,-0.561,-0.5604,-0.5596,-0.558,-0.5574,-0.5561,-0.5571,-0.5557,-0.5547,-0.5552,-0.5534,-0.553,-0.552,-0.55,-0.5491,-0.5495,-0.5459,-0.547,-0.5469,-0.5467,-0.5455,-0.5452,-0.5449,-0.549,-0.549,-0.5491,0,0,-0.5585,-0.558,-0.5564,-0.5557,-0.5548,-0.5545,-0.5542,-0.5533,-0.553,-0.5512,-0.5516,-0.5505,-0.5484,-0.5477,-0.5471,-0.5445,-0.5448,-0.5442,-0.5428,-0.5417,-0.5414,-0.5411,-0.5401,-0.5398,-0.544,-0.544,-0.544,0,-0.5574,-0.5555,-0.5555,-0.5541,-0.5534,-0.5539,-0.5523,-0.5517,-0.5504,-0.5499,-0.5504,-0.5479,-0.5473,-0.5451,-0.5445,-0.544,-0.5436,-0.5442,-0.5414,-0.5412,-0.5409,-0.5399,-0.5396,-0.5439,-0.5439,-0.5439,-0.5439,0,-0.5541,-0.5528,-0.5516,-0.5504,-0.5496,-0.5481,-0.5479,-0.5471,-0.5472,-0.5469,-0.5452,-0.5445,-0.5432,-0.5428,-0.5428,-0.5406,-0.5409,-0.5415,-0.5424,-0.5405,-0.5396,-0.5392,-0.5438,-0.5438,-0.5438,-0.5439,0,0,-0.5507,-0.5496,-0.5492,-0.5486,-0.5477,-0.5467,-0.5453,-0.5441,-0.5433,-0.5425,-0.5413,-0.5396,-0.5401,-0.5394,-0.5395,-0.5385,-0.5364,-0.5392,-0.5392,-0.5386,-0.5339,-0.5333,-0.5329,-0.5367,-0.5366,-0.5366,-0.5339,0,-0.548,-0.5454,-0.5455,-0.5431,-0.5419,-0.5425,-0.5412,-0.5405,-0.5403,-0.5392,-0.539,-0.5377,-0.5386,-0.5382,-0.5373,-0.5369,-0.5355,-0.5371,-0.5354,-0.5354,-0.5355,-0.5324,-0.5318,-0.5293,-0.5336,-0.5335,-0.5335,0,-0.5445,-0.5435,-0.541,-0.5403,-0.5398,-0.5387,-0.5376,-0.5366,-0.5359,-0.5358,-0.5351,-0.5354,-0.5339,-0.5351,-0.5331,-0.5342,-0.5336,-0.5333,-0.5332,-0.5329,-0.5341,-0.5318,-0.5285,-0.528,-0.5329,-0.533,-0.533,0,-0.542,-0.5402,-0.5385,-0.538,-0.5372,-0.5364,-0.536,-0.5354,-0.5347,-0.5338,-0.5333,-0.5323,-0.5317,-0.5309,-0.5309,-0.5317,-0.5288,-0.53,-0.5286,-0.5286,-0.5278,-0.5278,-0.5241,-0.5277,-0.5277,-0.5277,-0.5277,0,-0.5389,-0.5373,-0.5374,-0.5362,-0.5345,-0.5347,-0.533,-0.5327,-0.5322,-0.531,-0.5316,-0.5305,-0.5306,-0.5295,-0.5295,-0.5278,-0.5276,-0.5275,-0.5274,-0.5273,-0.5273,-0.5267,-0.5268,-0.5276,-0.5276,-0.5277,-0.5277,0,-0.5358,-0.5358,-0.5339,-0.5334,-0.5332,-0.5319,-0.5314,-0.5304,-0.5304,-0.5289,-0.5286,-0.5284,-0.5272,-0.5272,-0.5258,-0.5258,-0.5237,-0.524,-0.5239,-0.5239,-0.5225,-0.5225,-0.5181,-0.5175,-0.5217,-0.5216,-0.5216,0,-0.5337,-0.5325,-0.5318,-0.5311,-0.5307,-0.5296,-0.5289,-0.5291,-0.5284,-0.5276,-0.5266,-0.5255,-0.5245,-0.5226,-0.5223,-0.5213,-0.5214,-0.52,-0.5213,-0.5212,-0.5212,-0.5212,-0.5211,-0.5196,-0.5196,-0.5195,-0.5195,0,-0.5299,-0.53,-0.529,-0.528,-0.5272,-0.5264,-0.5257,-0.5251,-0.5253,-0.5244,-0.5232,-0.5225,-0.5211,-0.52,-0.519,-0.5186,-0.519,-0.5192,-0.5188,-0.5185,-0.5184,-0.5183,-0.523,-0.5192,-0.5192,-0.5192,-0.5193,-0.5193,-0.5271,-0.526,-0.5254,-0.5243,-0.5238,-0.5232,-0.5222,-0.5221,-0.5211,-0.5199,-0.5202,-0.5188,-0.5183,-0.517,-0.5166,-0.5155,-0.516,-0.5155,-0.5153,-0.5151,-0.5149,-0.5188,-0.5154,-0.5154,-0.5154,-0.5154,-0.5154,0,-0.5232,-0.5229,-0.5219,-0.5209,-0.52,-0.5207,-0.52,-0.5192,-0.518,-0.5174,-0.5165,-0.5152,-0.5141,-0.5139,-0.5128,-0.512,-0.5122,-0.5117,-0.5117,-0.5116,-0.5146,-0.5149,-0.5116,-0.5116,-0.5116,-0.5116,-0.5116,-0.5116,-0.521,-0.5192,-0.5193,-0.5174,-0.5171,-0.5157,-0.5153,-0.5147,-0.5143,-0.5127,-0.5118,-0.5117,-0.5113,-0.5103,-0.5093,-0.5093,-0.5088,-0.5082,-0.5082,-0.511,-0.5114,-0.5117,-0.512,-0.5082,-0.5082,-0.5053,-0.5053,-0.5053]},{"header":{"parameterUnit":"m.s-1","parameterCategory":1,"la1":30.2991,"la2":30.254,"lo1":-89.0895,"lo2":-89.0444,"dy":0.0017,"dx":0.0017,"nx":28,"ny":28,"refTime":"2024-11-24T09:00:00:Z","depth":0,"parameterNumber":3,"parameterNumberName":"V-component_of_WINDS"},"data":[0,0,0,0,0,0,0,0,0,0,0,0,0,0,0,0,0,0,0,0,0,0,0,0,0,0,0,0,0,0,0,0,0,0,0,0,0,0,0,0,0,0,0,0,0,0,0,0,0,0,0,0,0,0,0,0,0,0,4.4872,4.4872,0,4.4914,4.4915,4.4915,4.4861,4.4859,4.4857,4.4855,4.4895,4.4897,4.49,0,0,0,0,0,0,0,0,0,0,0,0,0,4.4739,4.4742,4.4872,4.4872,4.4873,4.4914,4.4915,4.4915,4.4861,4.4859,4.4856,4.4854,4.4894,4.4897,4.4901,0,0,0,0,0,0,0,0,0,0,0,0,0,4.4791,4.4743,4.4872,4.4851,4.4849,4.4914,4.4915,4.4916,4.4862,4.4859,4.4856,4.4853,4.4893,4.4897,4.4901,4.4987,0,0,4.4914,4.4916,0,0,0,0,0,0,0,0,4.4788,4.4796,4.4853,4.4852,4.4851,4.4879,4.4883,4.4939,4.4862,4.4857,4.4855,4.4852,4.4892,4.4896,4.491,4.4989,4.4991,4.4915,4.4917,4.4919,4.492,0,0,0,0,0,0,0,4.4784,4.4793,4.4888,4.4854,4.4853,4.4838,4.4842,4.4893,4.489,4.4857,4.4853,4.4859,4.489,4.4906,4.4911,4.4991,4.4915,4.4918,4.4921,4.4923,4.5141,4.5144,0,0,0,0,0,0,4.4784,4.4791,4.4887,4.489,4.4812,4.4843,4.4847,4.4873,4.489,4.4889,4.4862,4.4857,4.49,4.4906,4.4912,4.5013,4.4919,4.4923,4.4926,4.5138,4.5142,4.5146,0,0,0,0,0,0,4.4781,4.4793,4.4885,4.4839,4.485,4.4848,4.4878,4.4876,4.4891,4.4893,4.4892,4.4879,4.4898,4.4906,4.4969,4.5014,4.4925,4.4929,4.5134,4.5139,4.5144,4.5217,0,0,0,0,0,0,4.4778,4.4792,4.4826,4.4841,4.4853,4.4943,4.4881,4.4879,4.4899,4.4893,4.4909,4.4908,4.4896,4.4963,4.4973,4.5018,4.4933,4.513,4.5137,4.5142,4.521,4.5223,4.5235,0,0,0,0,0,4.4773,4.4844,4.4828,4.484,4.4895,4.4946,4.4953,4.4939,4.4903,4.4936,4.4937,4.4908,4.5007,4.497,4.4981,4.5028,4.5127,4.5135,4.5142,4.5205,4.5221,4.5234,0,0,0,0,0,0,4.4834,4.4846,4.4828,4.4906,4.4926,4.4937,4.4978,4.4956,4.4985,4.4977,4.4957,4.4961,4.5029,4.5034,4.4992,4.5111,4.5061,4.5071,4.5105,4.5121,4.5133,4.5129,4.4936,0,0,0,0,0,4.4857,4.4898,4.4906,4.4974,4.4985,4.498,4.5002,4.4989,4.5008,4.5015,4.5021,4.5039,4.5074,4.5098,4.513,4.5211,4.5213,4.5249,4.5261,4.5271,4.5279,4.5322,4.5337,4.5169,4.5169,4.5169,0,0,4.4904,4.4915,4.4943,4.4987,4.5,4.5042,4.4987,4.5034,4.5065,4.5022,4.5082,4.5087,4.5105,4.5178,4.521,4.5185,4.5326,4.528,4.5288,4.5291,4.5331,4.5346,4.5361,4.5174,4.5173,4.5172,0,0,4.5011,4.5024,4.5083,4.5097,4.5119,4.5115,4.5129,4.5144,4.5145,4.5206,4.5174,4.5209,4.5271,4.5285,4.5301,4.5413,4.5386,4.5424,4.5487,4.5529,4.5542,4.5554,4.5593,4.5607,4.5432,4.5433,4.5433,0,4.5066,4.513,4.5115,4.5165,4.5184,4.5148,4.5206,4.5221,4.5251,4.5265,4.5237,4.5313,4.5323,4.5397,4.5425,4.5439,4.5453,4.5422,4.5542,4.5553,4.5564,4.5601,4.5616,4.5437,4.5436,4.5436,4.5436,0,4.5196,4.5241,4.5285,4.5317,4.5342,4.5395,4.5387,4.5413,4.5398,4.5397,4.5458,4.5469,4.5503,4.5519,4.5505,4.5592,4.5576,4.5545,4.5494,4.5584,4.5619,4.5633,4.5443,4.5442,4.544,4.5439,0,0,4.5343,4.5366,4.5383,4.5396,4.5417,4.5451,4.5502,4.5536,4.5559,4.5581,4.5622,4.5675,4.5646,4.5664,4.565,4.5687,4.5774,4.5651,4.5651,4.5673,4.587,4.5892,4.5909,4.5757,4.576,4.5762,4.5868,0,4.545,4.5541,4.5528,4.5614,4.5654,4.5621,4.5665,4.5682,4.5682,4.5714,4.5714,4.5751,4.5711,4.5721,4.5756,4.5756,4.5813,4.5749,4.5794,4.5796,4.579,4.5927,4.5952,4.6051,4.5881,4.5883,4.5885,0,4.5587,4.5616,4.5706,4.572,4.5737,4.5777,4.5807,4.5839,4.5857,4.5854,4.5874,4.5854,4.5903,4.5852,4.5919,4.5876,4.5893,4.5896,4.59,4.5903,4.5846,4.5934,4.6083,4.6098,4.5906,4.5905,4.5903,0,4.5685,4.5745,4.5807,4.582,4.5838,4.5867,4.5876,4.5891,4.5912,4.5937,4.5951,4.5981,4.5998,4.6021,4.601,4.5974,4.6079,4.6027,4.6077,4.6077,4.61,4.6099,4.6254,4.6113,4.6112,4.6112,4.6112,0,4.5805,4.5862,4.5851,4.5889,4.5951,4.5935,4.5996,4.6,4.6014,4.6051,4.6023,4.6058,4.6041,4.6074,4.6065,4.6121,4.6129,4.6127,4.6124,4.613,4.613,4.6141,4.6133,4.6116,4.6115,4.6114,4.6114,0,4.5925,4.592,4.5985,4.5997,4.6001,4.6046,4.6056,4.609,4.6088,4.6135,4.6145,4.6142,4.6179,4.617,4.6211,4.6205,4.6276,4.6264,4.627,4.6267,4.6318,4.6313,4.6485,4.6506,4.6352,4.6353,4.6355,0,4.6002,4.6045,4.6062,4.6085,4.6096,4.6134,4.6156,4.6142,4.6165,4.6188,4.622,4.6255,4.6283,4.6345,4.6345,4.6375,4.6364,4.6422,4.6368,4.6372,4.6364,4.6361,4.6365,4.6432,4.6434,4.6436,4.6437,0,4.6139,4.6135,4.6168,4.62,4.6227,4.6251,4.6273,4.6293,4.628,4.6308,4.6347,4.6368,4.641,4.6445,4.6474,4.648,4.6456,4.6454,4.6467,4.6473,4.6474,4.6474,4.6299,4.645,4.6448,4.6447,4.6447,4.6446,4.6239,4.6276,4.6293,4.6331,4.6345,4.6366,4.6399,4.6402,4.6434,4.6468,4.6457,4.6501,4.6517,4.6552,4.6563,4.6596,4.6574,4.6593,4.6598,4.6603,4.6609,4.647,4.6601,4.6601,4.6601,4.66,4.66,0,4.6375,4.6384,4.6419,4.645,4.648,4.6455,4.6478,4.6503,4.6543,4.656,4.6588,4.6632,4.6666,4.6669,4.67,4.6726,4.6716,4.6735,4.6732,4.6734,4.6627,4.6613,4.6743,4.6743,4.6743,4.6742,4.6742,4.6742,4.6449,4.6508,4.6506,4.6572,4.6581,4.6625,4.664,4.6658,4.6671,4.6722,4.6751,4.6753,4.6763,4.6795,4.6825,4.6825,4.6837,4.686,4.6856,4.6756,4.6742,4.6728,4.6714,4.6863,4.6864,4.696,4.6961,4.6961]}]]